HAZ0790 ZHCC-ZHCC

Flight info

Callsign HAZ0790
Flight time N/A
Altitude 2500
Route LOCAL
Aircraft A320/M-SDE3FGHIRWY/LB1

Departure

Time 2026-05-01 14:16
Airport Zhengzhou Xinzheng International Airport (ZHCC)

Arrival

Time N/A
Airport Zhengzhou Xinzheng International Airport (ZHCC)
Time Latitude Longitude Altitude Speed Heading
2026-05-01 14:07 34.52093 113.84820 505 ft 0 kts 22°
2026-05-01 14:07 34.52090 113.84819 505 ft 2 kts 22°
2026-05-01 14:08 34.52059 113.84803 505 ft 2 kts 22°
2026-05-01 14:08 34.52044 113.84795 505 ft 2 kts 19°
2026-05-01 14:08 34.52028 113.84795 505 ft 2 kts 309°
2026-05-01 14:08 34.52022 113.84805 505 ft 0 kts 296°
2026-05-01 14:10 34.52033 113.84784 505 ft 11 kts 300°
2026-05-01 14:11 34.52070 113.84686 505 ft 11 kts 253°
2026-05-01 14:11 34.51986 113.84565 505 ft 15 kts 253°
2026-05-01 14:11 34.52011 113.84437 504 ft 15 kts 294°
2026-05-01 14:12 34.52052 113.84317 504 ft 20 kts 286°
2026-05-01 14:12 34.52107 113.84168 504 ft 17 kts 292°
2026-05-01 14:12 34.52145 113.84042 504 ft 15 kts 289°
2026-05-01 14:12 34.52183 113.83933 504 ft 14 kts 292°
2026-05-01 14:13 34.52235 113.83784 504 ft 26 kts 290°
2026-05-01 14:13 34.52282 113.83641 504 ft 27 kts 291°
2026-05-01 14:13 34.52375 113.83358 505 ft 27 kts 293°
2026-05-01 14:13 34.52450 113.83145 505 ft 28 kts 293°
2026-05-01 14:14 34.52525 113.82928 505 ft 28 kts 292°
2026-05-01 14:14 34.52590 113.82737 505 ft 13 kts 293°
2026-05-01 14:14 34.52565 113.82668 505 ft 9 kts 200°
2026-05-01 14:14 34.52511 113.82644 504 ft 9 kts 200°
2026-05-01 14:15 34.52430 113.82649 504 ft 7 kts 107°
2026-05-01 14:15 34.52424 113.82690 504 ft 0 kts 109°
2026-05-01 14:15 34.52424 113.82691 504 ft 3 kts 109°
2026-05-01 14:15 34.52329 113.82964 504 ft 72 kts 112°
2026-05-01 14:16 34.52057 113.83766 499 ft 131 kts 112°
2026-05-01 14:16 34.51654 113.84956 647 ft 164 kts 112°
2026-05-01 14:16 34.51256 113.86194 1443 ft 154 kts 114°
2026-05-01 14:16 34.50889 113.87388 2171 ft 151 kts 118°
2026-05-01 14:17 34.50474 113.88085 2413 ft 160 kts 145°
2026-05-01 14:17 34.49347 113.88519 2528 ft 187 kts 182°
2026-05-01 14:17 34.47822 113.87507 2536 ft 205 kts 231°
2026-05-01 14:17 34.47402 113.86381 2527 ft 235 kts 255°
2026-05-01 14:18 34.47653 113.83558 2542 ft 266 kts 287°
2026-05-01 14:18 34.48327 113.81483 2537 ft 269 kts 290°
2026-05-01 14:18 34.49033 113.79451 2533 ft 253 kts 290°
2026-05-01 14:18 34.49475 113.78153 2530 ft 241 kts 288°
2026-05-01 14:19 34.50053 113.76302 2531 ft 232 kts 287°
2026-05-01 14:19 34.50611 113.74474 2538 ft 231 kts 287°
2026-05-01 14:19 34.51170 113.72639 2531 ft 232 kts 287°
2026-05-01 14:19 34.51911 113.70202 2538 ft 233 kts 288°
2026-05-01 14:20 34.52371 113.69010 2524 ft 229 kts 303°
2026-05-01 14:20 34.55028 113.67704 2522 ft 211 kts 20°
2026-05-01 14:20 34.56129 113.68620 2530 ft 178 kts 59°
2026-05-01 14:21 34.56523 113.69892 2516 ft 156 kts 92°
2026-05-01 14:21 34.56337 113.71141 2414 ft 145 kts 116°
2026-05-01 14:21 34.55961 113.72248 2271 ft 144 kts 116°
2026-05-01 14:22 34.55208 113.74466 1909 ft 139 kts 115°
2026-05-01 14:22 34.54842 113.75549 1722 ft 138 kts 117°
2026-05-01 14:22 34.54477 113.76625 1516 ft 138 kts 117°
2026-05-01 14:22 34.54120 113.77710 1304 ft 139 kts 115°
2026-05-01 14:23 34.53765 113.78803 1082 ft 139 kts 114°
2026-05-01 14:23 34.53387 113.79888 943 ft 140 kts 115°
2026-05-01 14:23 34.53005 113.80978 832 ft 141 kts 112°
2026-05-01 14:23 34.52634 113.82083 620 ft 141 kts 113°
2026-05-01 14:24 34.52267 113.83156 504 ft 127 kts 112°
2026-05-01 14:24 34.51963 113.84043 500 ft 114 kts 112°
2026-05-01 14:24 34.51573 113.85189 536 ft 176 kts 112°
2026-05-01 14:24 34.51098 113.86534 1442 ft 172 kts 121°
2026-05-01 14:25 34.50255 113.87486 2393 ft 168 kts 159°
2026-05-01 14:25 34.49043 113.87584 2589 ft 190 kts 194°
2026-05-01 14:25 34.47947 113.86664 2556 ft 200 kts 231°
2026-05-01 14:25 34.47529 113.85041 2532 ft 211 kts 268°
2026-05-01 14:26 34.47892 113.83273 2529 ft 226 kts 287°
2026-05-01 14:26 34.49119 113.79717 2534 ft 230 kts 290°
2026-05-01 14:26 34.49756 113.77935 2541 ft 230 kts 290°
2026-05-01 14:27 34.50392 113.76153 2541 ft 230 kts 290°
2026-05-01 14:27 34.51027 113.74371 2534 ft 231 kts 290°
2026-05-01 14:27 34.51658 113.72571 2542 ft 232 kts 290°
2026-05-01 14:28 34.52906 113.68958 2533 ft 232 kts 290°
2026-05-01 14:28 34.53531 113.67152 2522 ft 232 kts 290°
2026-05-01 14:28 34.54401 113.65515 2525 ft 235 kts 319°
2026-05-01 14:28 34.55850 113.64653 2531 ft 235 kts 353°
2026-05-01 14:29 34.57426 113.64916 2526 ft 229 kts 33°
2026-05-01 14:29 34.58434 113.66297 2532 ft 219 kts 76°
2026-05-01 14:30 34.56389 113.70485 2520 ft 210 kts 119°
2026-05-01 14:30 34.55945 113.72193 2491 ft 215 kts 107°
2026-05-01 14:30 34.55559 113.73875 2055 ft 198 kts 111°
2026-05-01 14:31 34.54533 113.76483 1848 ft 142 kts 122°
2026-05-01 14:31 34.54161 113.77560 1533 ft 141 kts 112°
2026-05-01 14:31 34.53814 113.78677 1191 ft 141 kts 116°
2026-05-01 14:31 34.53429 113.79731 1001 ft 136 kts 116°
2026-05-01 14:32 34.53069 113.80794 809 ft 136 kts 112°
2026-05-01 14:32 34.52707 113.81854 641 ft 135 kts 114°
2026-05-01 14:32 34.52353 113.82898 507 ft 129 kts 113°
2026-05-01 14:32 34.52073 113.83727 499 ft 78 kts 111°